Tracking 27419 objects as of 9-Jun-2023
HD Live streaming from Space Station
objects crossing your sky now

DELTA 1 DEB

Track DELTA 1 DEB now!
10-day predictions


NORAD ID: 7013
Int'l Code: 1973-086D
Perigee: 1,409.2 km
Apogee: 1,519.9 km
Inclination: 102.0 °
Period: 115.0 minutes
Semi major axis: 7835 km
RCS: 0.9452 m2 (medium)
Launch date: November 6, 1973
Source: United States (US)
Launch site: AIR FORCE WESTERN TEST RANGE (AFWTR)

Note: This is SATELLITE DEBRIS
Your satellite tracking list
Your tracking list is empty




NASA's NSSDC Master Catalog

Two Line Element Set (TLE):
1  7013U 73086D   23159.92319810  .00000009  00000-0  34646-3 0  9993
2  7013 101.9669 146.9289 0070654  43.7508  11.7704 12.51702240264403
Source of the keplerian elements: AFSPC